Location: Kaarina
(60.4167°N, 22.4167°E)
Time: 22:02:11
(UTC+03:00)

Meteor 1-23 Rocket - Pass Details

Date: 24 August 2019
Orbit: 838 x 888 km, 81.3° (Epoch: 14 October)

Event Time Altitude Azimuth Distance (km) Brightness Sun altitude
Rises 21:46:38 0° 342° (NNW) 3,490 8.4 -5.8°
Reaches altitude 10° 21:49:07 10° 343° (NNW) 2,541 7.6 -6.1°
Maximum altitude 21:54:55 85° 72° (ENE) 879 4.3 -6.7°
Drops below altitude 10° 22:00:36 10° 162° (SSE) 2,491 6.2 -7.2°
Enters shadow 22:02:19 - 163° (SSE) 3,154 6.7 -7.4°
